Temperature
7 6 6 6 6 6 6 5 5 5 5 5 5 5 5 5 5 5 5 5 5 5 5 5 5 5 5 5 5 5 5 4 4 4 5 5 5 5 5 6 6 6 6
6 6 6 6 6 6 5 5 5 5 5 5 5 5 5 5 5 5 5 5 5 4 4 4 4 4 4 4 4 4 4 4 4 4 4 5 5 5 5 5 5 5 5
6 6 6 6 6 6 5 5 5 5 5 5 5 5 5 5 4 4 4 4 4 4 4 4 4 4 4 4 4 4 4 4 4 4 4 4 4 4 4 5 5 5 5
6 6 6 6 6 5 5 5 5 5 5 5 4 4 4 4 4 4 4 4 4 4 4 4 4 4 4 4 4 4 4 4 4 4 4 4 4 4 4 4 4 4 4
6 6 6 6 5 5 5 5 5 5 4 4 4 4 4 4 4 4 3 3 3 3 3 3 3 3 3 3 3 3 3 3 3 3 3 3 3 4 3 3 3 3 4
6 6 6 5 5 5 5 5 5 4 4 4 4 4 4 4 4 3 3 3 3 3 3 3 3 3 3 3 3 3 3 3 3 3 3 3 3 3 3 3 2 2 2
6 5 5 5 5 5 5 4 4 4 4 4 4 3 3 3 3 3 3 3 3 3 3 3 3 3 3 3 3 2 2 2 2 2 2 2 2 2 2 2 2 2 2
6 5 5 5 5 5 4 4 4 4 4 4 3 3 3 3 3 3 3 3 3 3 3 2 2 2 2 2 2 2 2 2 2 2 2 2 2 2 2 1 1 1 1
5 5 5 4 4 4 4 4 4 4 4 3 3 3 3 3 3 3 2 2 2 2 2 2 2 2 2 2 2 2 2 2 2 2 2 1 1 1 1 1 1 1 1
5 5 4 4 4 4 4 3 3 3 3 3 3 3 3 3 3 2 2 2 2 2 2 2 2 2 2 1 1 1 1 1 1 1 1 1 1 1 1 1 1 1 0
4 4 4 4 4 3 3 3 3 3 3 3 3 2 2 2 2 2 2 2 1 1 1 1 1 1 1 1 1 1 1 1 1 1 1 1 1 1 1 1 1 0 0
4 3 3 3 3 3 3 3 2 2 2 2 2 2 2 2 2 2 1 1 1 1 1 1 1 1 1 1 0 0 0 0 0 0 0 0 0 0 0 0 0 0 -0
3 3 3 3 3 2 2 2 2 2 2 1 1 1 1 1 1 1 1 1 1 1 0 0 0 0 0 0 0 0 0 0 -0 -0 -0 -0 -0 -0 -0 -0 -0 -0 -0
3 3 2 2 2 2 2 2 1 1 1 1 1 1 1 1 1 0 0 0 0 0 0 -0 -0 -0 -0 -0 -0 -0 -0 -0 -0 -1 -1 -1 -1 -1 -1 -1 -1 -1 -1
2 2 2 2 1 1 1 1 0 0 0 -0 0 -0 -0 -0 0 -0 -0 -0 -0 -0 -0 -0 -0 -0 -0 -1 -0 -0 -1 -1 -1 -1 -1 -1 -1 -1 -1 -1 -2 -2 -2
1 1 1 1 1 1 0 0 0 -0 -0 -0 -0 -1 -1 -0 -0 -1 -0 -0 -0 -1 -1 -1 -1 -1 -1 -1 -1 -1 -1 -1 -1 -1 -1 -2 -2 -2 -2 -2 -2 -2 -2
1 0 0 0 -0 -0 -0 -0 -0 0 -0 -0 -0 -1 -1 -1 -1 -1 -1 -1 -1 -1 -1 -1 -1 -1 -1 -1 -1 -1 -1 -1 -1 -2 -2 -2 -2 -2 -2 -2 -2 -2 -2
0 -0 -1 -1 -1 -1 -1 -1 -1 -1 -1 -0 -0 -1 -1 -1 -1 -1 -1 -1 -1 -1 -1 -1 -1 -1 -2 -2 -2 -2 -2 -2 -2 -2 -2 -2 -2 -2 -3 -3 -3 -3 -3
-0 -1 -1 -1 -1 -1 -1 -1 -1 -1 -1 -1 -1 -1 -1 -1 -1 -1 -1 -1 -2 -2 -2 -2 -2 -2 -2 -2 -2 -2 -2 -2 -2 -2 -2 -2 -2 -3 -3 -3 -3 -3 -3
-1 -1 -1 -2 -2 -2 -2 -2 -2 -2 -2 -2 -2 -2 -2 -2 -2 -2 -2 -2 -2 -2 -2 -2 -2 -2 -2 -2 -2 -2 -2 -2 -2 -2 -2 -3 -3 -3 -3 -3 -3 -3 -3
-1 -1 -2 -2 -2 -2 -2 -3 -3 -3 -3 -3 -3 -3 -3 -3 -3 -3 -3 -3 -3 -3 -3 -3 -3 -3 -2 -2 -2 -2 -2 -3 -3 -3 -3 -3 -3 -3 -3 -3 -3 -3 -3
-2 -2 -2 -2 -3 -3 -3 -3 -3 -4 -3 -3 -3 -3 -3 -3 -3 -3 -3 -3 -3 -3 -3 -3 -3 -3 -3 -3 -2 -3 -3 -3 -3 -3 -3 -3 -3 -4 -4 -4 -4 -4 -4
-2 -3 -3 -3 -3 -3 -4 -4 -4 -4 -4 -4 -4 -4 -4 -4 -4 -4 -4 -4 -4 -4 -3 -3 -3 -3 -3 -3 -3 -3 -3 -3 -3 -3 -3 -3 -3 -4 -4 -4 -4 -4 -4
-3 -3 -3 -4 -4 -4 -4 -4 -4 -4 -4 -4 -4 -4 -4 -4 -4 -4 -4 -4 -4 -4 -4 -4 -3 -3 -3 -3 -3 -3 -3 -3 -3 -3 -3 -4 -4 -4 -4 -4 -4 -4 -4
-4 -4 -4 -4 -4 -4 -5 -5 -5 -5 -5 -5 -5 -5 -5 -5 -5 -5 -4 -4 -4 -4 -4 -4 -4 -4 -3 -3 -3 -3 -3 -3 -3 -3 -4 -4 -4 -4 -4 -4 -4 -4 -4
-4 -4 -4 -5 -5 -5 -5 -5 -5 -5 -5 -5 -5 -5 -5 -5 -5 -5 -5 -5 -4 -4 -4 -4 -4 -4 -4 -4 -3 -3 -3 -3 -3 -3 -4 -4 -4 -4 -4 -4 -4 -4 -4
Wind_Speed
4 3 3 3 3 3 3 4 4 4 4 4 4 4 3 3 3 3 3 4 4 3 3 3 3 2 2 2 2 2 2 2 5 5 3 4 4 5 5 6 7 6 8
3 2 3 3 3 2 3 3 3 3 4 3 3 3 2 2 2 3 3 3 4 4 3 3 3 2 2 2 2 2 2 2 4 6 5 4 4 5 5 5 5 5 5
1 2 2 2 2 2 3 2 2 2 2 2 2 2 2 2 2 3 3 3 3 3 3 3 3 3 3 2 2 2 2 3 3 4 5 4 3 3 4 5 4 3 4
1 1 2 3 2 2 2 1 1 1 1 1 2 1 1 1 2 2 2 2 2 2 2 3 3 4 4 4 3 3 2 2 2 3 4 4 3 3 3 4 4 3 4
1 1 2 3 2 1 1 1 1 0 1 1 0 0 1 1 1 1 1 1 2 1 1 1 2 2 2 2 2 2 2 2 2 2 3 4 3 3 3 2 3 4 4
1 2 2 2 1 1 1 0 1 1 1 1 1 1 1 1 1 1 1 0 1 1 0 0 1 1 2 3 3 3 3 2 2 3 3 4 4 4 3 3 3 3 4
1 2 2 2 1 1 1 1 1 1 1 1 1 0 1 1 1 2 2 1 1 0 0 0 1 2 3 1 2 3 4 4 4 3 4 4 4 4 3 3 3 3 4
1 2 2 1 1 0 1 1 1 1 1 1 1 1 1 2 2 2 3 2 2 1 1 0 0 1 1 1 1 2 3 3 4 3 3 4 4 3 3 3 3 3 3
1 2 2 1 0 1 0 1 1 1 2 2 2 2 2 2 3 3 3 2 2 2 1 1 0 0 2 2 1 1 2 3 4 3 3 3 3 4 2 1 1 1 3
1 1 1 1 2 1 1 1 2 2 2 2 3 2 2 2 3 3 3 1 2 2 2 2 2 1 2 3 1 0 2 3 2 3 4 4 3 3 4 2 2 2 2
2 3 3 3 2 2 2 2 2 3 3 3 3 3 2 2 3 4 3 1 1 1 1 2 1 2 3 4 3 1 2 2 1 2 2 2 2 2 3 3 2 1 2
3 3 3 3 3 3 3 3 3 3 3 3 3 4 3 3 3 3 4 3 2 1 0 1 1 3 4 4 3 2 2 2 1 1 1 2 2 2 2 2 1 1 0
4 4 4 4 4 3 3 3 3 3 2 2 2 2 3 3 3 5 5 4 4 2 0 1 2 3 4 3 4 3 3 1 1 1 1 2 2 2 2 1 1 2 3
3 3 3 3 4 4 3 3 2 2 2 2 2 2 3 3 3 3 3 3 3 2 1 2 3 4 4 3 3 3 2 1 0 1 1 1 1 1 2 1 1 2 2
3 3 3 3 3 3 3 3 2 2 1 1 2 2 2 3 3 5 3 2 1 0 1 1 2 2 2 2 2 2 2 1 1 1 0 1 1 1 1 1 1 1 1
3 3 3 3 3 3 3 4 5 4 5 5 5 4 3 4 5 5 5 4 3 2 2 1 1 1 1 1 1 1 2 2 1 1 0 0 1 1 1 1 1 1 1
2 2 2 2 2 2 2 2 4 6 6 6 6 7 6 6 5 4 4 3 3 2 2 0 1 1 1 1 1 1 1 2 1 1 0 0 0 1 1 1 1 1 1
3 3 2 2 1 2 2 2 2 3 4 5 6 7 7 7 5 4 4 3 2 3 1 1 1 1 1 1 1 1 1 1 1 0 0 0 0 0 1 1 0 0 1
2 2 2 1 2 2 2 2 2 3 3 4 4 6 7 6 5 4 3 2 1 2 2 1 1 1 1 1 1 1 1 1 1 1 0 0 1 1 1 0 0 1 1
2 3 3 2 2 2 2 2 3 3 4 4 4 4 5 5 3 3 3 2 2 2 2 2 2 1 1 1 1 1 1 1 1 1 0 0 1 1 1 1 0 0 0
1 2 4 3 2 2 2 3 3 3 4 4 4 5 6 4 3 3 3 3 3 3 3 2 2 2 2 2 1 2 2 2 2 1 1 1 1 0 1 1 0 0 0
1 1 1 2 2 2 3 3 3 3 4 5 5 6 7 4 3 4 4 4 3 3 3 3 3 3 2 2 2 2 2 2 2 2 2 1 1 1 1 1 1 1 1
1 1 2 2 2 3 3 3 3 3 4 4 5 5 5 4 4 4 4 4 3 3 2 2 3 3 2 2 3 3 3 3 3 3 2 2 1 1 1 1 1 1 1
1 1 2 2 2 2 3 3 3 4 4 5 5 5 5 4 4 5 5 4 4 3 2 2 2 3 3 3 2 3 3 3 3 3 4 3 2 2 1 1 1 1 1
1 1 2 2 2 3 3 3 4 4 5 5 5 5 5 5 5 5 5 4 4 4 4 3 2 3 3 4 3 3 3 4 4 3 3 3 3 2 2 2 2 2 2
1 2 2 2 2 3 3 3 4 4 5 5 5 5 5 5 5 5 5 5 5 4 4 3 3 3 3 3 3 3 4 3 4 4 4 3 3 3 3 2 3 2 2
Wind_Direction
263 263 266 270 274 271 260 258 253 254 256 254 253 253 250 234 211 207 217 207 207 212 206 189 200 202 206 222 231 229 231 233 261 287 290 300 303 302 308 312 304 296 291
264 270 268 271 282 275 266 265 255 246 250 252 253 247 237 222 207 208 213 207 201 202 205 195 205 207 209 222 231 238 239 242 250 276 294 300 296 299 305 308 306 306 301
271 272 279 286 280 259 260 263 260 252 257 259 247 231 225 214 211 216 208 204 204 202 203 200 203 192 226 238 239 244 248 259 253 259 283 295 297 301 311 309 305 305 307
279 284 294 293 283 261 252 255 261 262 271 274 254 236 228 218 218 217 202 194 195 202 212 209 209 207 215 222 235 238 246 253 250 262 281 292 295 297 299 303 318 321 313
300 291 289 290 285 300 281 272 283 301 303 296 276 306 262 224 228 208 196 208 192 203 227 229 233 240 247 249 246 232 230 243 256 269 280 293 295 305 306 307 311 321 317
285 284 297 304 316 311 314 330 13 4 356 13 43 33 337 293 278 296 284 179 183 189 201 25 341 324 307 298 289 278 271 264 255 265 279 282 290 292 297 299 306 322 312
299 302 306 304 297 271 345 31 9 348 19 11 5 37 0 347 355 357 3 35 104 90 72 62 351 345 341 356 334 327 323 309 283 268 266 271 270 269 275 292 299 299 288
309 303 303 325 306 317 58 3 348 7 19 11 353 346 1 342 9 33 30 46 65 56 46 299 52 330 315 305 334 348 335 323 307 294 260 271 272 267 257 263 272 294 298
7 339 326 328 43 72 57 334 360 18 21 19 15 27 27 2 26 36 23 64 63 36 17 19 75 266 291 312 352 347 331 325 329 325 303 303 302 305 298 289 285 302 301
339 346 6 48 76 71 42 16 20 36 30 27 22 29 43 30 17 21 16 69 60 22 7 354 337 322 309 321 328 333 322 315 336 358 1 357 349 343 343 325 267 257 278
27 43 47 55 69 75 57 36 42 40 38 31 22 20 25 19 11 13 7 43 102 27 350 335 331 336 332 328 319 304 271 293 341 355 348 350 352 354 352 351 336 253 245
58 58 52 47 50 52 65 44 44 50 41 27 24 12 9 5 1 5 7 5 358 61 324 313 314 329 333 334 333 338 334 342 11 4 352 345 342 340 340 345 16 47 325
61 57 50 46 45 45 56 51 39 42 40 17 15 3 352 1 3 358 358 354 354 0 346 333 332 335 346 1 11 354 342 2 31 348 323 319 317 315 329 351 30 46 37
67 55 52 52 41 35 30 32 36 26 19 3 355 341 336 341 348 349 348 352 352 358 4 4 360 4 6 7 356 350 351 346 264 255 275 298 333 353 354 2 21 14 23
64 50 43 45 48 32 21 13 8 354 337 335 317 303 310 319 313 315 320 326 325 289 341 5 10 2 6 358 357 352 350 346 334 321 314 323 341 2 359 15 36 31 38
64 46 41 37 33 25 16 5 5 4 355 349 343 333 319 309 312 323 334 339 339 343 2 27 338 321 314 317 332 338 340 333 331 338 349 327 349 12 26 37 54 59 38
71 52 46 39 28 14 7 1 349 353 357 353 352 345 339 330 326 333 345 349 348 357 17 22 292 278 284 277 277 295 304 312 325 334 325 346 32 46 53 36 45 47 10
52 41 37 33 14 1 352 345 341 338 338 341 344 343 342 341 336 338 339 350 350 356 4 300 288 283 276 253 254 271 291 315 317 299 315 327 182 136 91 47 29 32 337
45 35 30 26 11 4 354 350 346 338 328 328 336 339 338 335 338 338 341 351 319 314 318 300 288 285 277 255 249 248 247 252 252 231 225 219 168 137 128 99 55 357 345
36 17 15 18 12 7 359 352 344 336 330 327 325 326 331 334 333 328 329 327 309 300 296 288 282 269 262 257 247 238 241 242 229 235 235 186 164 154 156 161 148 75 354
22 3 2 3 1 354 346 339 332 327 323 320 317 318 321 321 313 306 305 305 295 287 282 277 272 265 259 253 246 242 242 234 216 211 201 193 180 166 152 145 140 120 70
12 360 359 350 343 341 332 326 323 319 316 316 318 320 319 320 315 310 305 304 300 289 276 267 263 260 250 243 236 233 241 234 211 192 185 186 180 167 153 142 130 127 124
360 340 334 330 325 323 327 328 321 315 314 314 314 315 316 316 312 307 304 303 301 295 293 281 267 267 264 253 242 235 232 226 208 190 184 180 176 176 176 169 166 169 167
331 315 311 314 320 318 313 313 313 312 311 312 312 311 311 310 310 307 305 304 302 294 292 285 274 267 266 262 253 244 233 212 193 186 182 181 182 185 181 166 164 164 162
316 308 305 302 304 304 305 307 309 311 312 311 310 310 311 311 309 309 309 307 304 299 295 290 279 269 262 256 249 240 227 210 202 186 171 174 175 176 173 169 165 158 162
308 302 300 300 300 301 301 303 307 308 307 305 306 306 308 306 305 306 309 308 306 302 301 299 289 277 269 258 243 227 216 200 189 189 171 161 169 171 167 163 160 154 151
Height
1417 1417 1416 1415 1414 1413 1412 1412 1411 1410 1410 1410 1409 1409 1408 1409 1409 1409 1409 1410 1411 1411 1413 1414 1415 1417 1418 1419 1419 1420 1421 1421 1419 1417 1418 1418 1417 1417 1415 1415 1414 1413 1412
1415 1414 1414 1413 1411 1410 1410 1409 1409 1408 1408 1407 1407 1406 1405 1406 1406 1406 1407 1407 1408 1408 1409 1411 1412 1413 1414 1415 1416 1416 1416 1417 1417 1413 1413 1413 1413 1413 1411 1410 1409 1408 1407
1413 1412 1411 1410 1409 1408 1407 1407 1406 1406 1405 1405 1404 1404 1403 1403 1404 1404 1404 1404 1405 1406 1407 1407 1408 1409 1410 1411 1412 1412 1413 1413 1413 1411 1409 1409 1409 1408 1407 1406 1404 1403 1403
1411 1410 1409 1408 1407 1406 1406 1405 1404 1404 1403 1403 1402 1402 1402 1402 1402 1402 1402 1402 1402 1403 1404 1405 1405 1406 1407 1408 1408 1409 1409 1409 1409 1407 1406 1405 1405 1404 1403 1401 1399 1399 1398
1409 1408 1407 1407 1406 1405 1404 1403 1403 1402 1402 1401 1401 1400 1400 1400 1400 1400 1400 1400 1400 1400 1401 1402 1403 1404 1404 1405 1405 1405 1406 1406 1405 1404 1403 1402 1401 1401 1400 1398 1397 1395 1394
1408 1407 1406 1405 1404 1403 1403 1402 1401 1401 1400 1400 1399 1399 1398 1398 1398 1398 1398 1398 1398 1398 1399 1400 1400 1401 1401 1402 1403 1403 1403 1403 1402 1402 1400 1399 1398 1398 1397 1396 1394 1392 1390
1406 1405 1404 1403 1402 1402 1401 1401 1400 1399 1399 1398 1397 1397 1397 1397 1397 1396 1396 1397 1396 1396 1396 1397 1397 1398 1399 1399 1399 1399 1399 1399 1400 1399 1397 1396 1396 1395 1394 1393 1392 1390 1388
1403 1403 1402 1401 1400 1400 1400 1399 1399 1398 1397 1396 1396 1396 1395 1395 1395 1395 1395 1395 1395 1395 1395 1395 1396 1396 1397 1397 1396 1396 1395 1395 1395 1395 1394 1393 1393 1392 1392 1391 1390 1388 1386
1401 1400 1400 1399 1399 1398 1398 1398 1397 1396 1396 1395 1395 1394 1394 1394 1394 1394 1394 1393 1393 1393 1394 1394 1394 1394 1395 1395 1394 1393 1392 1392 1392 1392 1391 1390 1390 1390 1389 1389 1387 1386 1384
1399 1399 1399 1398 1398 1397 1396 1396 1396 1395 1395 1394 1394 1394 1393 1392 1393 1393 1393 1392 1392 1392 1392 1392 1393 1393 1392 1392 1392 1391 1390 1389 1389 1388 1388 1387 1387 1387 1387 1386 1385 1384 1383
1398 1398 1397 1397 1396 1396 1395 1395 1395 1394 1394 1393 1393 1392 1392 1392 1392 1392 1391 1391 1390 1390 1390 1390 1390 1390 1390 1390 1389 1389 1388 1387 1386 1386 1385 1385 1385 1385 1384 1384 1383 1383 1382
1398 1397 1397 1396 1395 1395 1395 1394 1394 1393 1392 1392 1391 1391 1391 1391 1391 1390 1390 1390 1389 1389 1388 1388 1388 1388 1388 1387 1387 1386 1386 1385 1384 1384 1383 1382 1382 1382 1381 1381 1381 1380 1380
1397 1397 1396 1396 1395 1395 1394 1394 1393 1393 1392 1391 1391 1390 1390 1390 1389 1389 1388 1388 1387 1387 1386 1386 1386 1386 1385 1384 1384 1384 1383 1383 1382 1381 1380 1380 1380 1380 1379 1379 1378 1378 1377
1397 1396 1396 1395 1395 1395 1394 1394 1393 1392 1392 1391 1390 1390 1389 1388 1388 1387 1386 1386 1385 1385 1384 1384 1384 1383 1383 1382 1382 1381 1381 1380 1380 1379 1378 1378 1378 1378 1377 1377 1376 1376 1375
1396 1396 1395 1395 1394 1393 1393 1394 1393 1393 1392 1391 1390 1390 1388 1387 1387 1387 1385 1384 1383 1383 1382 1382 1381 1381 1380 1380 1379 1379 1379 1378 1377 1377 1376 1376 1376 1376 1376 1376 1375 1374 1374
1396 1395 1395 1394 1394 1393 1393 1392 1392 1392 1392 1391 1390 1389 1388 1387 1386 1385 1384 1383 1382 1382 1381 1379 1379 1379 1378 1378 1377 1377 1377 1376 1375 1375 1374 1374 1374 1374 1374 1374 1374 1374 1373
1396 1395 1395 1394 1394 1393 1392 1391 1390 1391 1391 1390 1389 1388 1387 1386 1385 1383 1382 1381 1380 1380 1378 1377 1377 1377 1376 1376 1376 1375 1375 1374 1374 1373 1373 1373 1373 1373 1373 1373 1373 1373 1373
1396 1396 1395 1394 1394 1393 1392 1391 1390 1389 1388 1387 1387 1386 1385 1384 1383 1382 1381 1379 1378 1377 1376 1376 1375 1375 1374 1374 1374 1374 1373 1373 1372 1372 1372 1372 1372 1372 1372 1372 1373 1373 1373
1396 1395 1395 1394 1393 1393 1392 1391 1390 1389 1387 1386 1385 1384 1383 1382 1380 1379 1378 1377 1375 1374 1374 1374 1373 1373 1372 1372 1372 1372 1371 1371 1371 1371 1371 1371 1371 1372 1372 1372 1372 1372 1372
1395 1394 1394 1393 1392 1391 1390 1389 1388 1387 1386 1384 1383 1382 1381 1379 1377 1376 1376 1375 1374 1373 1372 1372 1371 1371 1371 1370 1370 1369 1369 1369 1369 1369 1369 1370 1370 1371 1371 1371 1371 1371 1371
1393 1393 1392 1392 1391 1390 1389 1388 1387 1385 1384 1382 1381 1380 1379 1377 1375 1374 1373 1372 1371 1371 1370 1370 1369 1369 1368 1368 1368 1367 1367 1367 1368 1368 1368 1368 1369 1369 1370 1370 1371 1371 1371
1392 1391 1391 1390 1389 1388 1387 1386 1385 1383 1382 1380 1379 1378 1377 1375 1373 1372 1371 1370 1369 1369 1368 1368 1367 1367 1366 1366 1366 1366 1366 1366 1366 1366 1367 1367 1368 1369 1369 1369 1370 1370 1370
1390 1389 1389 1388 1387 1386 1385 1384 1382 1381 1380 1378 1377 1375 1374 1372 1371 1369 1368 1367 1367 1366 1366 1365 1365 1364 1364 1364 1364 1364 1364 1364 1365 1365 1365 1366 1367 1367 1368 1369 1369 1369 1370
1388 1387 1386 1385 1384 1383 1382 1381 1380 1379 1377 1376 1374 1373 1371 1369 1368 1367 1366 1365 1364 1363 1363 1362 1362 1362 1361 1362 1362 1362 1362 1362 1363 1363 1364 1365 1365 1366 1367 1368 1368 1369 1369
1386 1385 1384 1383 1382 1381 1380 1379 1377 1376 1375 1373 1372 1370 1368 1367 1365 1364 1363 1362 1361 1361 1360 1360 1359 1359 1359 1359 1359 1359 1360 1360 1361 1362 1363 1363 1364 1365 1366 1367 1368 1368 1369
1383 1382 1381 1380 1379 1378 1377 1376 1374 1373 1372 1370 1369 1367 1366 1364 1363 1362 1360 1360 1359 1358 1358 1357 1357 1356 1356 1356 1357 1357 1358 1358 1359 1360 1361 1362 1363 1364 1365 1366 1367 1368 1369